• In Netherlands
  • List of Countries
  • For 7 days
  • Water Temperature
  • Satellite Maps
  • Weather Map
  • Weather Widgets
  • user-avatar
    Login

    Hourly Weather Elbasan

    Today, 20 February, Monday

    Time Temperature Precipitation Wind Pressure Humidity
    00:00 +6°C° 0 mm 1 mps 738 mmHg 94%
    01:00 +6°C° 0 mm 1 mps 738 mmHg 94%
    02:00 +6°C° 0 mm 1 mps 738 mmHg 94%
    03:00 +6°C° 0 mm 1 mps 738 mmHg 94%
    04:00 +5°C° 0 mm 1 mps 738 mmHg 94%
    05:00 +5°C° 0 mm 1 mps 738 mmHg 94%
    06:00 +5°C° 0 mm 1 mps 739 mmHg 94%
    07:00 +5°C° 0 mm 1 mps 739 mmHg 93%
    08:00 +7°C° 0 mm 1 mps 739 mmHg 83%
    09:00 +8°C° 0 mm 1 mps 739 mmHg 74%
    10:00 +10°C° 0 mm 1 mps 739 mmHg 64%
    11:00 +10°C° 0 mm 1 mps 739 mmHg 62%
    12:00 +11°C° 0 mm 1 mps 739 mmHg 60%
    13:00 +11°C° 0 mm 1 mps 739 mmHg 58%
    14:00 +11°C° 0 mm 1 mps 738 mmHg 60%
    15:00 +10°C° 0 mm 1 mps 738 mmHg 63%
    16:00 +10°C° 0 mm 1 mps 738 mmHg 66%
    17:00 +8°C° 0 mm 1 mps 738 mmHg 73%
    18:00 +7°C° 0 mm 1 mps 738 mmHg 79%
    19:00 +5°C° 0 mm 1 mps 738 mmHg 86%
    20:00 +5°C° 0 mm 1 mps 738 mmHg 86%
    21:00 +4°C° 0 mm 1 mps 738 mmHg 86%
    22:00 +4°C° 0 mm 1 mps 738 mmHg 86%
    23:00 +4°C° 0 mm 1 mps 738 mmHg 87%

    Tomorrow, 21 February, Tuesday

    Time Temperature Precipitation Wind Pressure Humidity
    00:00 +4°C° 0 mm 1 mps 738 mmHg 87%
    01:00 +4°C° 0 mm 1 mps 738 mmHg 87%
    02:00 +4°C° 0 mm 1 mps 738 mmHg 87%
    03:00 +4°C° 0 mm 1 mps 738 mmHg 88%
    04:00 +3°C° 0 mm 1 mps 738 mmHg 88%
    05:00 +4°C° 0 mm 1 mps 738 mmHg 87%
    06:00 +4°C° 0 mm 1 mps 738 mmHg 86%
    07:00 +3°C° 0 mm 0 mps 738 mmHg 85%
    08:00 +6°C° 0 mm 1 mps 738 mmHg 74%
    09:00 +8°C° 0 mm 1 mps 738 mmHg 64%
    10:00 +10°C° 0 mm 1 mps 738 mmHg 54%
    11:00 +11°C° 0 mm 1 mps 738 mmHg 52%
    12:00 +10°C° 0 mm 2 mps 737 mmHg 49%
    13:00 +12°C° 0 mm 2 mps 737 mmHg 47%
    14:00 +10°C° 0 mm 2 mps 737 mmHg 52%
    15:00 +10°C° 0 mm 2 mps 736 mmHg 57%
    16:00 +9°C° 0 mm 2 mps 736 mmHg 62%
    17:00 +7°C° 0 mm 2 mps 736 mmHg 70%
    18:00 +6°C° 0 mm 1 mps 737 mmHg 78%
    19:00 +5°C° 0 mm 1 mps 737 mmHg 87%
    20:00 +4°C° 0 mm 1 mps 737 mmHg 85%
    21:00 +4°C° 0 mm 1 mps 737 mmHg 84%
    22:00 +4°C° 0 mm 1 mps 737 mmHg 82%
    23:00 +4°C° 0 mm 1 mps 737 mmHg 80%

    Day after tomorrow, 22 February, Wednesday

    Time Temperature Precipitation Wind Pressure Humidity
    00:00 +4°C° 0 mm 1 mps 737 mmHg 77%
    01:00 +4°C° 0 mm 1 mps 737 mmHg 75%
    02:00 +4°C° 0 mm 1 mps 737 mmHg 73%
    03:00 +4°C° 0 mm 1 mps 737 mmHg 72%
    04:00 +4°C° 0 mm 1 mps 737 mmHg 70%
    05:00 +5°C° 0 mm 1 mps 737 mmHg 69%
    06:00 +5°C° 0 mm 1 mps 737 mmHg 68%
    07:00 +5°C° 0 mm 1 mps 737 mmHg 67%
    08:00 +8°C° 0 mm 1 mps 738 mmHg 61%
    09:00 +10°C° 0 mm 1 mps 738 mmHg 55%
    10:00 +13°C° 0 mm 1 mps 738 mmHg 50%
    11:00 +14°C° 0 mm 1 mps 738 mmHg 51%
    12:00 +14°C° 0 mm 1 mps 738 mmHg 52%
    13:00 +15°C° 0 mm 1 mps 737 mmHg 54%
    14:00 +14°C° 0 mm 1 mps 737 mmHg 59%
    15:00 +14°C° 0 mm 1 mps 737 mmHg 65%
    16:00 +13°C° 0 mm 1 mps 737 mmHg 70%
    17:00 +11°C° 0 mm 1 mps 737 mmHg 78%
    18:00 +9°C° 0 mm 1 mps 737 mmHg 85%
    19:00 +6°C° 0 mm 0 mps 737 mmHg 92%
    20:00 +7°C° 0 mm 1 mps 737 mmHg 92%
    21:00 +6°C° 0 mm 1 mps 738 mmHg 93%
    22:00 +6°C° 0 mm 1 mps 738 mmHg 93%
    23:00 +6°C° 0 mm 1 mps 738 mmHg 93%

    23 February, Thursday

    Time Temperature Precipitation Wind Pressure Humidity
    00:00 +6°C° 0 mm 1 mps 738 mmHg 93%
    01:00 +6°C° 0 mm 1 mps 738 mmHg 93%
    02:00 +6°C° 0 mm 1 mps 738 mmHg 93%
    03:00 +4°C° 0 mm 2 mps 737 mmHg 93%
    04:00 +4°C° 0 mm 2 mps 737 mmHg 93%
    05:00 +4°C° 0 mm 2 mps 737 mmHg 92%
    06:00 +6°C° 0 mm 1 mps 737 mmHg 91%
    07:00 +6°C° 0 mm 1 mps 737 mmHg 90%
    08:00 +8°C° 0 mm 1 mps 738 mmHg 79%
    09:00 +11°C° 0 mm 1 mps 738 mmHg 68%
    10:00 +13°C° 0 mm 1 mps 738 mmHg 57%
    11:00 +14°C° 0 mm 2 mps 737 mmHg 55%
    12:00 +15°C° 0 mm 2 mps 737 mmHg 53%
    13:00 +15°C° 0 mm 2 mps 737 mmHg 51%
    14:00 +15°C° 0 mm 2 mps 737 mmHg 56%
    15:00 +14°C° 0 mm 2 mps 736 mmHg 61%
    16:00 +14°C° 0 mm 2 mps 736 mmHg 67%
    17:00 +12°C° 0 mm 2 mps 736 mmHg 75%
    18:00 +9°C° 0 mm 2 mps 736 mmHg 83%
    19:00 +8°C° 0 mm 2 mps 737 mmHg 91%
    20:00 +7°C° 0 mm 2 mps 737 mmHg 92%
    21:00 +7°C° 0 mm 2 mps 737 mmHg 93%
    22:00 +7°C° 0 mm 2 mps 737 mmHg 94%
    23:00 +7°C° 0 mm 2 mps 737 mmHg 94%

    24 February, Friday

    Time Temperature Precipitation Wind Pressure Humidity
    00:00 +7°C° 0 mm 2 mps 737 mmHg 94%
    01:00 +7°C° 0 mm 2 mps 736 mmHg 94%
    02:00 +7°C° 0 mm 2 mps 736 mmHg 94%
    03:00 +7°C° 0 mm 2 mps 736 mmHg 93%
    04:00 +7°C° 0 mm 2 mps 736 mmHg 93%
    05:00 +7°C° 0 mm 2 mps 736 mmHg 93%
    06:00 +7°C° 0 mm 2 mps 736 mmHg 92%
    07:00 +7°C° 0 mm 2 mps 736 mmHg 91%
    08:00 +9°C° 0 mm 2 mps 736 mmHg 83%
    09:00 +12°C° 0 mm 2 mps 736 mmHg 75%
    10:00 +13°C° 0 mm 3 mps 736 mmHg 67%
    11:00 +14°C° 0 mm 3 mps 736 mmHg 64%
    12:00 +16°C° 0 mm 3 mps 736 mmHg 60%
    13:00 +17°C° 0 mm 4 mps 735 mmHg 57%
    14:00 +17°C° 0 mm 4 mps 735 mmHg 60%
    15:00 +15°C° 0 mm 4 mps 734 mmHg 64%
    16:00 +16°C° 0 mm 3 mps 734 mmHg 68%
    17:00 +14°C° 0 mm 3 mps 734 mmHg 75%
    18:00 +12°C° 0 mm 3 mps 734 mmHg 81%
    19:00 +11°C° 0 mm 3 mps 734 mmHg 88%
    20:00 +11°C° 0.4 mm 3 mps 734 mmHg 88%
    21:00 +11°C° 0.4 mm 4 mps 734 mmHg 89%
    22:00 +10°C° 0.4 mm 4 mps 734 mmHg 90%
    23:00 +10°C° 0.2 mm 4 mps 734 mmHg 89%

    25 February, Saturday

    Time Temperature Precipitation Wind Pressure Humidity
    00:00 +10°C° 0.2 mm 4 mps 733 mmHg 89%
    01:00 +10°C° 0.2 mm 4 mps 733 mmHg 88%
    02:00 +10°C° 0.1 mm 4 mps 733 mmHg 89%
    03:00 +10°C° 0.1 mm 4 mps 732 mmHg 90%
    04:00 +10°C° 0.1 mm 4 mps 732 mmHg 90%
    05:00 +10°C° 0 mm 3 mps 732 mmHg 90%
    06:00 +10°C° 0 mm 3 mps 733 mmHg 91%
    07:00 +10°C° 0 mm 3 mps 733 mmHg 91%
    08:00 +12°C° 0 mm 3 mps 733 mmHg 84%
    09:00 +14°C° 0 mm 3 mps 734 mmHg 77%
    10:00 +17°C° 0 mm 3 mps 734 mmHg 70%
    11:00 +18°C° 0 mm 3 mps 734 mmHg 67%
    12:00 +19°C° 0 mm 3 mps 734 mmHg 63%
    13:00 +20°C° 0 mm 3 mps 734 mmHg 59%
    14:00 +20°C° 0 mm 3 mps 734 mmHg 62%
    15:00 +19°C° 0 mm 3 mps 734 mmHg 66%
    16:00 +19°C° 0 mm 3 mps 734 mmHg 69%
    17:00 +17°C° 0 mm 2 mps 734 mmHg 77%
    18:00 +15°C° 0 mm 2 mps 735 mmHg 84%
    19:00 +13°C° 0 mm 2 mps 735 mmHg 92%
    20:00 +13°C° 0 mm 2 mps 735 mmHg 91%
    21:00 +12°C° 0 mm 2 mps 735 mmHg 91%
    22:00 +12°C° 0 mm 1 mps 735 mmHg 91%
    23:00 +12°C° 0 mm 1 mps 735 mmHg 90%
    Show more